SCP
0 0 0 0 0 0 0 0 0 0 0 0 0 0 0 0 0 0 0 0 0 0 0 0 0 0 0 0 0 0 0 0 0 0 0 0 0 0 0 0 0 0 0
0 0 0 0 0 0 0 0 0 0 0 0 0 0 0 0 0 0 0 0 0 0 0 0 0 0 0 0 0 0 0 0 0 0 0 0 0 0 0 0 0 0 0
0 0 0 0 0 0 0 0 0 0 0 0 0 0 0 0 0 0 0 0 0 0 0 0 0 0 0 0 0 0 0 0 0 0 0 0 0 0 0 0 0 0 0
1 1 0 0 0 0 0 0 0 0 0 0 0 0 0 0 0 0 0 0 0 0 0 0 0 0 0 0 0 0 0 0 0 0 0 0 0 0 0 0 0 0 0
1 1 1 1 1 0 0 0 0 0 0 0 0 0 0 0 0 0 0 0 0 0 0 0 0 0 0 0 0 0 0 0 0 0 0 0 0 0 0 0 0 0 0
1 1 1 1 1 0 0 0 0 0 0 0 0 0 0 0 0 0 0 0 0 0 0 0 0 0 0 0 0 0 0 0 0 0 0 0 0 0 0 0 0 0 0
1 1 1 1 1 1 0 0 0 0 0 0 0 0 0 0 0 0 0 0 0 0 0 0 0 0 0 0 0 0 0 0 0 0 0 0 0 0 0 0 0 0 0
1 1 1 1 1 1 1 0 0 0 0 0 0 0 0 0 0 0 0 0 0 0 0 0 0 0 0 0 0 0 0 0 0 0 0 0 0 0 0 0 0 0 0
1 1 1 1 1 1 1 0 0 0 0 0 0 0 0 0 0 0 0 0 0 0 0 0 0 0 0 0 0 0 0 0 0 0 0 0 0 0 0 0 0 0 0
1 1 1 1 1 1 1 0 0 0 0 0 0 0 0 0 0 0 0 0 0 0 0 0 0 0 0 0 0 0 0 0 0 0 0 0 0 0 0 0 0 0 0
1 1 1 1 1 1 1 0 0 0 0 0 0 0 0 0 0 0 0 0 0 0 0 0 0 0 0 0 0 0 0 0 0 0 0 0 0 0 0 0 0 0 0
1 1 1 1 1 1 1 0 0 0 0 0 0 0 0 0 0 0 0 0 0 0 0 0 0 0 0 0 0 0 0 0 0 0 0 0 0 0 0 0 0 0 0
1 1 1 1 1 1 1 0 0 0 0 0 0 0 0 0 0 0 0 0 0 0 0 0 0 0 0 0 0 0 0 0 0 0 0 0 0 0 0 0 0 0 0
1 1 1 1 1 1 1 0 0 0 0 0 0 0 0 0 0 0 0 0 0 0 0 0 0 0 0 0 0 0 0 0 0 0 0 0 0 0 0 0 0 0 0
1 1 1 1 1 1 1 0 0 0 0 0 0 0 0 0 0 0 0 0 0 0 0 0 0 0 0 0 -0 -0 0 0 0 0 0 0 0 0 0 0 0 0 0
1 1 1 1 1 1 0 0 0 0 0 0 0 0 0 0 0 0 0 0 0 0 0 0 0 0 0 0 0 -0 -0 0 0 0 0 0 0 0 0 0 0 0 0
1 1 1 1 1 1 0 0 0 0 0 0 0 0 0 0 0 0 0 0 0 0 0 0 0 0 0 0 0 0 0 0 0 0 0 0 0 0 0 0 0 0 0
1 1 1 1 1 1 0 0 0 0 0 0 0 0 0 0 0 0 0 0 0 0 0 0 0 0 0 0 0 0 0 0 0 0 0 0 0 0 0 0 0 0 0
1 1 1 1 1 1 0 0 0 0 0 0 0 0 0 0 0 0 0 0 0 0 0 0 0 0 0 0 0 0 0 0 0 0 0 0 0 0 0 0 0 0 0
1 1 1 1 1 0 0 0 0 0 0 0 0 0 0 0 0 0 0 0 0 0 0 0 0 0 0 0 0 0 0 0 0 0 0 0 0 0 0 0 0 0 0
0 0 0 0 0 0 0 0 0 0 0 0 0 0 0 0 0 0 0 0 0 0 0 0 0 0 0 0 0 0 0 0 0 0 0 0 0 0 0 0 0 0 0
0 0 0 0 0 0 0 0 0 0 0 0 0 0 0 0 0 0 0 0 0 0 0 0 0 0 0 0 0 0 0 0 0 0 0 0 0 0 0 0 0 0 0
0 0 0 0 0 0 0 0 0 0 0 0 0 0 0 0 0 0 0 0 0 0 0 0 0 0 0 0 0 0 0 0 0 0 0 0 0 0 0 0 0 0 0
0 0 0 0 0 0 0 0 0 0 0 0 0 0 0 0 0 0 0 0 0 0 0 0 0 0 0 0 0 0 0 0 0 0 0 0 0 0 0 0 0 0 0
0 0 0 0 0 0 0 0 0 0 0 0 0 0 0 0 0 0 0 0 0 0 0 0 0 0 0 0 0 0 0 0 0 0 0 0 0 0 0 0 0 0 0
0 0 0 0 0 0 0 0 0 0 0 0 0 0 0 0 0 0 0 0 0 0 0 0 0 0 0 0 0 0 0 0 0 0 0 0 0 0 0 0 0 0 0
Wind_Speed
5 6 13 14 15 15 15 15 15 16 15 16 16 16 15 15 15 15 14 14 14 13 14 15 15 15 15 15 15 15 14 14 14 14 13 13 14 13 13 13 11 8 13
8 8 14 14 15 15 15 15 15 15 15 15 16 15 15 15 15 14 14 14 14 14 14 14 14 14 14 14 14 14 14 13 13 13 13 11 12 13 13 12 12 8 13
10 9 13 15 14 14 15 15 15 15 15 15 15 15 15 14 14 14 14 14 14 14 14 14 13 14 13 13 13 13 13 12 12 12 11 6 7 11 12 12 12 12 12
10 9 10 15 14 15 15 15 15 15 14 14 14 14 14 14 14 14 14 14 13 13 13 13 13 13 13 12 12 12 12 12 11 11 6 5 4 10 11 11 11 11 11
9 8 11 15 15 14 14 15 14 14 14 14 14 14 13 14 14 13 13 13 13 13 12 12 12 12 12 12 11 12 12 12 11 8 5 4 4 8 10 10 10 10 10
8 7 10 15 15 14 14 14 14 13 13 14 13 13 13 13 13 13 12 13 12 12 12 12 12 11 11 11 11 11 11 11 9 5 4 4 3 8 10 10 9 9 9
9 7 10 14 15 14 14 14 13 13 13 13 13 13 13 13 12 12 12 12 11 11 11 11 11 11 11 11 11 10 10 10 6 4 4 3 4 8 9 9 9 8 8
9 8 9 13 14 13 13 13 13 13 12 12 13 13 13 13 12 12 11 11 11 11 10 10 10 10 10 10 10 10 9 8 6 4 3 3 6 8 8 8 8 7 7
7 7 7 8 9 12 12 12 12 12 12 11 11 12 12 12 12 11 11 10 10 10 10 10 10 10 10 10 10 9 9 9 4 2 3 2 5 7 7 7 7 7 7
6 6 6 7 7 7 7 11 11 11 11 11 11 11 10 10 10 10 9 9 9 9 9 9 9 9 9 9 9 9 8 6 3 3 2 2 6 6 6 6 6 6 6
6 5 6 6 6 6 6 8 9 10 10 10 9 10 8 5 5 5 7 8 8 8 8 8 8 8 8 7 8 8 6 2 3 2 2 4 5 6 6 6 6 6 6
8 6 5 6 6 6 5 5 5 5 5 5 5 5 4 4 4 5 7 8 8 8 7 8 8 7 6 3 4 6 2 3 2 2 2 5 5 6 6 6 6 7 7
8 6 6 6 6 6 5 4 3 3 3 4 5 5 4 4 3 3 2 3 4 5 4 5 4 3 3 2 2 2 2 2 1 2 2 5 6 6 7 7 7 8 8
7 6 6 6 6 6 5 4 4 3 3 3 3 4 4 3 3 2 2 2 2 2 2 2 2 2 3 2 2 2 2 1 1 1 2 6 6 6 7 7 7 8 8
7 6 6 6 6 6 5 4 4 4 4 4 3 3 4 3 3 2 2 2 2 2 2 2 2 2 2 2 2 2 2 2 2 2 2 6 6 7 7 7 8 8 8
7 7 6 6 6 6 5 4 4 3 3 3 3 3 4 3 3 3 2 2 1 1 1 2 2 2 1 2 2 2 2 1 2 2 2 4 7 7 7 8 8 8 8
7 6 6 6 6 6 6 5 4 3 3 3 3 3 3 3 4 3 2 2 1 1 2 2 2 2 2 2 2 2 2 2 2 2 2 2 3 6 8 8 8 8 9
7 7 6 6 6 6 5 5 4 3 3 3 2 3 3 3 4 3 2 2 1 2 2 2 2 2 2 2 1 2 2 2 2 2 2 2 2 3 5 9 9 9 10
6 7 6 6 6 6 5 4 4 4 3 2 2 2 3 3 3 3 2 2 2 2 2 2 2 1 1 1 1 1 2 2 2 2 2 2 2 2 2 6 9 10 10
5 6 6 6 6 6 5 4 4 4 2 2 2 2 3 2 3 3 2 2 2 2 2 2 2 2 1 1 1 2 2 2 1 2 2 2 2 2 3 3 3 6 10
5 6 6 6 5 5 4 4 3 3 2 2 2 2 3 3 3 2 2 2 2 2 2 2 2 2 2 1 2 2 2 2 2 1 2 2 2 2 2 2 2 2 4
5 5 5 5 5 5 4 3 2 3 2 2 2 2 2 3 2 2 3 2 2 2 2 2 2 2 1 1 2 1 2 3 3 2 2 2 2 2 2 3 3 3 3
4 5 5 6 5 4 5 4 4 3 3 2 1 1 1 2 2 2 2 2 2 2 3 2 2 3 2 1 1 2 2 2 2 3 2 2 2 2 2 2 3 3 3
3 3 4 5 5 5 5 6 6 4 3 2 2 2 1 2 2 2 2 2 2 2 2 2 2 1 3 1 0 1 1 2 1 2 2 2 2 2 2 3 3 3 3
2 2 3 4 5 4 4 5 5 3 2 2 2 2 2 1 1 2 2 2 2 1 2 2 2 2 1 2 2 1 1 1 1 1 3 3 3 2 2 2 2 2 3
2 2 3 5 4 4 4 4 5 5 5 4 3 2 2 1 1 1 2 2 1 1 1 2 2 2 1 2 1 1 2 1 1 1 2 3 3 3 3 2 2 2 3
Wind_Direction
161 159 148 140 135 130 127 123 120 117 115 113 111 109 109 107 104 101 98 98 97 94 91 90 89 87 85 84 81 79 78 77 75 73 73 73 73 72 69 65 64 58 64
148 152 145 139 136 133 129 125 122 118 116 114 113 111 109 108 106 103 101 98 97 96 92 90 88 86 85 84 82 79 78 76 74 71 68 66 69 70 69 66 67 64 63
141 146 143 139 135 133 129 127 124 120 118 115 114 112 110 110 108 106 102 99 96 94 92 90 89 87 85 84 82 80 78 76 74 70 63 48 57 69 70 67 65 63 61
136 140 141 139 136 134 132 129 126 123 120 118 115 114 112 110 108 106 103 100 97 95 92 91 90 89 87 86 84 83 80 77 74 70 53 42 44 64 68 66 65 62 59
131 135 141 138 137 136 134 132 129 126 123 121 119 116 112 110 109 108 104 101 98 96 94 93 91 89 88 86 86 85 80 77 72 64 49 40 39 61 65 63 63 61 58
130 135 142 139 138 137 134 131 129 127 126 123 120 117 114 112 110 107 104 102 100 98 96 93 92 90 87 85 86 86 82 78 68 56 46 39 40 61 63 62 60 60 56
133 134 141 140 140 138 135 132 128 126 126 124 121 118 116 114 111 107 105 103 101 99 96 95 94 92 90 87 86 85 84 80 71 55 42 33 47 60 58 58 56 55 52
134 133 140 140 138 136 134 132 128 125 123 124 123 120 117 115 113 110 107 104 101 98 97 96 95 93 93 89 85 83 81 78 68 54 39 29 52 55 52 50 49 47 44
129 129 131 135 134 134 132 129 126 124 122 121 121 119 117 116 114 113 109 107 103 101 100 97 95 93 93 90 87 82 79 74 63 46 35 29 50 49 48 44 42 40 37
126 129 129 127 127 128 128 126 123 121 120 119 114 110 111 111 110 108 106 107 106 103 101 99 95 91 90 87 86 82 75 66 49 37 16 36 49 47 45 39 36 33 30
134 130 129 127 125 124 124 124 118 115 114 112 108 104 97 90 93 97 102 103 103 101 100 98 95 91 86 80 80 78 71 56 44 26 3 36 40 43 42 33 26 23 20
155 146 136 131 130 126 124 118 111 106 105 99 100 100 91 88 89 92 93 94 93 92 92 92 91 84 73 60 61 66 58 50 44 15 10 33 34 38 38 30 21 17 16
156 149 142 137 134 132 127 123 117 113 109 103 106 105 100 87 82 74 73 72 69 71 67 70 68 60 63 63 56 54 53 49 33 10 11 31 29 30 32 31 27 22 20
151 151 145 140 137 134 131 128 127 126 121 119 119 118 115 108 97 88 82 77 70 69 73 64 68 65 63 61 65 62 52 45 31 14 14 33 28 26 27 27 24 21 20
152 151 149 145 143 140 133 134 131 133 131 129 127 125 126 129 126 111 97 87 83 82 86 80 74 72 65 55 55 64 51 40 31 26 9 29 32 27 22 20 21 18 16
161 156 149 147 145 140 136 137 135 132 130 128 131 134 130 129 132 126 111 98 86 85 85 89 87 82 68 61 49 45 42 32 32 27 20 18 27 27 20 15 14 12 12
162 153 151 150 145 144 140 137 132 129 127 131 132 133 131 129 132 129 122 109 98 89 87 80 66 67 66 60 46 30 29 28 34 31 27 25 17 23 23 17 14 14 12
155 151 151 150 145 144 140 135 131 128 127 131 128 127 130 131 132 125 123 121 111 96 91 93 73 65 50 47 36 12 12 18 28 35 41 36 32 24 17 22 19 16 11
155 152 148 142 145 143 134 128 123 123 124 126 123 125 130 132 134 130 129 129 117 98 89 97 78 86 68 34 23 17 14 16 12 36 40 38 37 35 23 20 20 15 8
143 144 143 138 138 136 126 116 109 105 108 113 124 130 130 131 133 129 126 127 121 109 92 92 95 73 81 52 43 25 6 4 18 28 20 27 27 33 28 18 7 3 5
133 141 149 145 145 143 137 138 139 142 139 129 128 129 130 126 128 128 127 122 121 122 128 125 114 89 52 32 56 16 356 6 23 19 9 15 15 12 17 8 358 353 347
151 154 156 156 153 153 149 137 125 124 128 128 119 112 128 135 144 149 145 148 142 127 114 117 123 120 78 51 99 82 356 341 347 358 357 9 0 360 2 358 351 346 337
156 164 165 161 154 151 136 117 102 88 79 86 104 127 148 150 149 143 148 146 150 147 154 158 148 144 143 60 75 131 140 243 302 321 337 352 349 345 336 335 342 337 335
173 157 153 150 146 145 139 143 147 151 157 175 162 153 141 141 141 137 138 141 148 150 155 170 155 153 145 151 97 65 144 167 175 305 315 329 330 320 320 331 333 328 329
150 145 145 139 138 141 143 149 148 137 129 118 121 131 124 104 112 130 139 140 141 142 150 146 143 138 145 158 160 150 106 63 157 192 280 305 317 294 298 304 311 319 322
92 116 136 136 135 138 141 143 147 143 135 132 139 145 139 113 89 111 128 125 128 130 141 146 136 128 132 139 144 151 155 167 196 196 246 286 295 290 296 296 308 314 317